NPG852 LHBP-BKPR

Flight info

Callsign NPG852
Flight time 1h 18m
Altitude 37000
Route GAZDA DCT INVED DCT PADGU DCT LOMOS DCT OGOTA DCT DOTAM/N0462F380 DCT VELBA DCT SIN DCT SKJ DCT XAXAN XAXAN1D
Aircraft B738/M-SDE2E3FGHIRWXY/LB1

Departure

Time 2026-04-23 16:22
Airport Budapest Liszt Ferenc International Airport (LHBP)

Arrival

Time 2026-04-23 17:40
Airport Priština Adem Jashari International Airport (BKPR)
Time Latitude Longitude Altitude Speed Heading
2026-04-23 15:59 47.42796 19.27574 468 ft 0 kts 307°
2026-04-23 16:09 47.42791 19.27584 468 ft 2 kts 307°
2026-04-23 16:09 47.42781 19.27603 468 ft 2 kts 308°
2026-04-23 16:10 47.42771 19.27622 466 ft 2 kts 309°
2026-04-23 16:10 47.42760 19.27640 464 ft 2 kts 313°
2026-04-23 16:10 47.42748 19.27657 465 ft 2 kts 333°
2026-04-23 16:10 47.42735 19.27657 465 ft 1 kts 42°
2026-04-23 16:11 47.42734 19.27656 465 ft 0 kts 41°
2026-04-23 16:12 47.42735 19.27659 465 ft 1 kts 48°
2026-04-23 16:12 47.42744 19.27690 468 ft 6 kts 69°
2026-04-23 16:13 47.42763 19.27759 471 ft 9 kts 64°
2026-04-23 16:13 47.42862 19.27877 480 ft 9 kts
2026-04-23 16:13 47.42919 19.27815 481 ft 13 kts 311°
2026-04-23 16:14 47.42990 19.27701 479 ft 17 kts 314°
2026-04-23 16:14 47.43084 19.27548 479 ft 22 kts 312°
2026-04-23 16:14 47.43192 19.27372 479 ft 24 kts 312°
2026-04-23 16:14 47.43304 19.27194 487 ft 23 kts 313°
2026-04-23 16:15 47.43410 19.27023 485 ft 22 kts 314°
2026-04-23 16:15 47.43518 19.26857 483 ft 23 kts 314°
2026-04-23 16:15 47.43628 19.26676 480 ft 23 kts 311°
2026-04-23 16:15 47.43739 19.26489 486 ft 23 kts 302°
2026-04-23 16:16 47.43695 19.26328 486 ft 17 kts 236°
2026-04-23 16:16 47.43675 19.26130 485 ft 23 kts 270°
2026-04-23 16:16 47.43733 19.25922 483 ft 15 kts 262°
2026-04-23 16:16 47.43671 19.25820 483 ft 15 kts 217°
2026-04-23 16:17 47.43580 19.25703 484 ft 20 kts 222°
2026-04-23 16:17 47.43467 19.25552 480 ft 23 kts 223°
2026-04-23 16:17 47.43344 19.25386 479 ft 24 kts 223°
2026-04-23 16:17 47.43222 19.25224 482 ft 20 kts 222°
2026-04-23 16:18 47.43184 19.25172 479 ft 0 kts 223°
2026-04-23 16:19 47.43179 19.25166 481 ft 3 kts 222°
2026-04-23 16:19 47.43153 19.25130 481 ft 7 kts 223°
2026-04-23 16:20 47.43103 19.25064 484 ft 13 kts 219°
2026-04-23 16:20 47.43077 19.24975 486 ft 9 kts 303°
2026-04-23 16:20 47.43093 19.24946 487 ft 0 kts 313°
2026-04-23 16:21 47.43113 19.24914 484 ft 21 kts 313°
2026-04-23 16:21 47.43381 19.24479 479 ft 92 kts 312°
2026-04-23 16:21 47.43942 19.23569 492 ft 146 kts 312°
2026-04-23 16:22 47.44642 19.22434 1188 ft 141 kts 313°
2026-04-23 16:22 47.45279 19.21346 2025 ft 143 kts 311°
2026-04-23 16:22 47.45984 19.20173 2430 ft 166 kts 315°
2026-04-23 16:22 47.46837 19.18820 2680 ft 193 kts 314°
2026-04-23 16:23 47.47798 19.17285 2944 ft 213 kts 314°
2026-04-23 16:23 47.48643 19.15351 3267 ft 238 kts 292°
2026-04-23 16:23 47.48874 19.12931 4056 ft 248 kts 271°
2026-04-23 16:23 47.48419 19.10420 4874 ft 262 kts 247°
2026-04-23 16:24 47.47186 19.08321 5549 ft 283 kts 219°
2026-04-23 16:24 47.45412 19.06942 6269 ft 293 kts 207°
2026-04-23 16:24 47.43526 19.05702 6963 ft 299 kts 206°
2026-04-23 16:24 47.41612 19.04438 7729 ft 302 kts 207°
2026-04-23 16:25 47.39691 19.03128 8475 ft 305 kts 207°
2026-04-23 16:25 47.37760 19.01775 9201 ft 310 kts 207°
2026-04-23 16:25 47.35803 19.00388 9962 ft 313 kts 207°
2026-04-23 16:25 47.33812 18.98972 10453 ft 326 kts 207°
2026-04-23 16:26 47.31689 18.97488 10620 ft 349 kts 206°
2026-04-23 16:26 47.29414 18.95930 10792 ft 370 kts 206°
2026-04-23 16:26 47.27018 18.94298 10942 ft 390 kts 206°
2026-04-23 16:26 47.24511 18.92593 11295 ft 402 kts 206°
2026-04-23 16:27 47.21951 18.90850 11897 ft 405 kts 206°
2026-04-23 16:27 47.19383 18.89101 12543 ft 409 kts 206°
2026-04-23 16:27 47.16783 18.87330 13125 ft 414 kts 206°
2026-04-23 16:27 47.14076 18.85987 13744 ft 419 kts 188°
2026-04-23 16:28 47.11171 18.86103 14432 ft 418 kts 166°
2026-04-23 16:28 47.08464 18.87573 15059 ft 416 kts 148°
2026-04-23 16:28 47.06156 18.90111 15672 ft 413 kts 130°
2026-04-23 16:28 47.04370 18.93381 16330 ft 412 kts 123°
2026-04-23 16:29 47.02659 18.96765 16931 ft 415 kts 122°
2026-04-23 16:29 47.00945 19.00186 17522 ft 418 kts 123°
2026-04-23 16:29 46.99210 19.03629 18117 ft 421 kts 123°
2026-04-23 16:29 46.97452 19.07083 18655 ft 424 kts 123°
2026-04-23 16:30 46.95676 19.10544 19135 ft 428 kts 124°
2026-04-23 16:30 46.93872 19.14040 19611 ft 432 kts 123°
2026-04-23 16:30 46.92051 19.17556 20085 ft 436 kts 124°
2026-04-23 16:30 46.90214 19.21096 20534 ft 439 kts 124°
2026-04-23 16:31 46.88357 19.24668 21011 ft 442 kts 124°
2026-04-23 16:31 46.86490 19.28257 21437 ft 446 kts 124°
2026-04-23 16:31 46.84606 19.31875 21864 ft 449 kts 124°
2026-04-23 16:31 46.82707 19.35519 22267 ft 453 kts 124°
2026-04-23 16:32 46.80794 19.39182 22734 ft 455 kts 124°
2026-04-23 16:32 46.78888 19.42609 23116 ft 459 kts 129°
2026-04-23 16:32 46.76742 19.46070 23538 ft 462 kts 131°
2026-04-23 16:32 46.74515 19.49497 23839 ft 466 kts 131°
2026-04-23 16:33 46.72275 19.52899 24243 ft 467 kts 131°
2026-04-23 16:33 46.70023 19.56335 24587 ft 469 kts 131°
2026-04-23 16:33 46.67784 19.59784 24966 ft 470 kts 130°
2026-04-23 16:33 46.65547 19.63257 25298 ft 471 kts 130°
2026-04-23 16:34 46.63301 19.66761 25614 ft 473 kts 130°
2026-04-23 16:34 46.61057 19.70270 25925 ft 475 kts 130°
2026-04-23 16:34 46.58803 19.73794 26233 ft 477 kts 130°
2026-04-23 16:34 46.56537 19.77333 26557 ft 479 kts 130°
2026-04-23 16:35 46.54267 19.80872 26873 ft 480 kts 130°
2026-04-23 16:35 46.51984 19.84426 27169 ft 482 kts 130°
2026-04-23 16:35 46.49692 19.87988 27436 ft 483 kts 130°
2026-04-23 16:35 46.47396 19.91550 27781 ft 483 kts 130°
2026-04-23 16:36 46.45106 19.95097 28251 ft 480 kts 130°
2026-04-23 16:36 46.42829 19.98616 28794 ft 476 kts 130°
2026-04-23 16:36 46.40570 20.02106 29224 ft 475 kts 130°
2026-04-23 16:36 46.38305 20.05603 29597 ft 475 kts 130°
2026-04-23 16:37 46.36046 20.09086 29960 ft 475 kts 130°
2026-04-23 16:37 46.33786 20.12566 30314 ft 473 kts 130°
2026-04-23 16:37 46.31531 20.16033 30625 ft 473 kts 130°
2026-04-23 16:37 46.29274 20.19500 30909 ft 473 kts 130°
2026-04-23 16:38 46.27016 20.22963 31175 ft 474 kts 129°
2026-04-23 16:38 46.24757 20.26424 31476 ft 473 kts 129°
2026-04-23 16:38 46.22496 20.29883 31782 ft 473 kts 129°
2026-04-23 16:38 46.20238 20.33334 32080 ft 473 kts 129°
2026-04-23 16:39 46.17972 20.36793 32290 ft 475 kts 129°
2026-04-23 16:39 46.15700 20.40257 32529 ft 475 kts 129°
2026-04-23 16:39 46.13481 20.43754 33012 ft 469 kts 128°
2026-04-23 16:39 46.11345 20.47277 33390 ft 466 kts 127°
2026-04-23 16:40 46.09235 20.50832 33607 ft 468 kts 126°
2026-04-23 16:40 46.07148 20.54361 33803 ft 469 kts 126°
2026-04-23 16:40 46.05026 20.57935 34055 ft 469 kts 126°
2026-04-23 16:40 46.02875 20.61534 34321 ft 468 kts 127°
2026-04-23 16:41 46.00772 20.65030 34567 ft 468 kts 127°
2026-04-23 16:41 45.98635 20.68569 34713 ft 470 kts 127°
2026-04-23 16:41 45.96486 20.72116 34911 ft 470 kts 127°
2026-04-23 16:41 45.94334 20.75660 35161 ft 470 kts 127°
2026-04-23 16:42 45.92186 20.79190 35404 ft 469 kts 127°
2026-04-23 16:42 45.90043 20.82708 35600 ft 469 kts 127°
2026-04-23 16:42 45.87891 20.86240 35790 ft 469 kts 127°
2026-04-23 16:42 45.85740 20.89764 36004 ft 469 kts 127°
2026-04-23 16:43 45.83601 20.93263 36350 ft 466 kts 127°
2026-04-23 16:43 45.81463 20.96757 36594 ft 465 kts 127°
2026-04-23 16:43 45.79331 21.00238 36724 ft 466 kts 127°
2026-04-23 16:43 45.77187 21.03736 36855 ft 467 kts 128°
2026-04-23 16:44 45.75044 21.07229 36970 ft 469 kts 128°
2026-04-23 16:44 45.72878 21.10752 36958 ft 470 kts 128°
2026-04-23 16:44 45.68576 21.17734 36976 ft 466 kts 128°
2026-04-23 16:45 45.64290 21.24672 36983 ft 464 kts 128°
2026-04-23 16:45 45.60016 21.31576 36978 ft 463 kts 128°
2026-04-23 16:46 45.55745 21.38459 36976 ft 463 kts 128°
2026-04-23 16:46 45.51469 21.45331 36981 ft 463 kts 128°
2026-04-23 16:47 45.47216 21.52151 36991 ft 464 kts 128°
2026-04-23 16:47 45.42921 21.59021 36982 ft 465 kts 128°
2026-04-23 16:48 45.38611 21.65897 36978 ft 466 kts 128°
2026-04-23 16:48 45.34288 21.72778 36982 ft 467 kts 128°
2026-04-23 16:49 45.29951 21.79662 36992 ft 468 kts 128°
2026-04-23 16:49 45.25599 21.86553 36977 ft 469 kts 128°
2026-04-23 16:50 45.21240 21.93437 36981 ft 468 kts 128°
2026-04-23 16:50 45.16890 22.00291 36974 ft 467 kts 128°
2026-04-23 16:51 45.12541 22.07126 36978 ft 467 kts 128°
2026-04-23 16:51 45.08192 22.13946 36977 ft 466 kts 128°
2026-04-23 16:52 45.03846 22.20744 36971 ft 466 kts 128°
2026-04-23 16:52 44.99528 22.27482 36970 ft 465 kts 128°
2026-04-23 16:53 44.95181 22.34248 36980 ft 466 kts 128°
2026-04-23 16:53 44.90827 22.41011 36963 ft 466 kts 128°
2026-04-23 16:54 44.86466 22.47768 36955 ft 466 kts 128°
2026-04-23 16:54 44.82102 22.54516 36958 ft 466 kts 128°
2026-04-23 16:55 44.77475 22.60923 36949 ft 471 kts 140°
2026-04-23 16:55 44.71743 22.65490 36966 ft 477 kts 151°
2026-04-23 16:56 44.65737 22.69480 36950 ft 477 kts 151°
2026-04-23 16:56 44.60713 22.72837 36952 ft 477 kts 151°
2026-04-23 16:57 44.54734 22.76892 36942 ft 477 kts 150°
2026-04-23 16:57 44.48813 22.80932 36941 ft 477 kts 150°
2026-04-23 16:58 44.42837 22.85004 36949 ft 477 kts 150°
2026-04-23 16:58 44.36860 22.89063 36953 ft 477 kts 150°
2026-04-23 16:59 44.30886 22.93109 36947 ft 477 kts 150°
2026-04-23 16:59 44.24905 22.97151 36929 ft 478 kts 151°
2026-04-23 17:00 44.18926 23.01182 36944 ft 478 kts 151°
2026-04-23 17:00 44.12948 23.05205 36951 ft 477 kts 151°
2026-04-23 17:01 44.06965 23.09221 36953 ft 478 kts 151°
2026-04-23 17:01 44.00976 23.13232 36971 ft 478 kts 151°
2026-04-23 17:02 43.95005 23.17223 36949 ft 478 kts 151°
2026-04-23 17:02 43.89017 23.21217 36951 ft 477 kts 151°
2026-04-23 17:03 43.82906 23.24756 36947 ft 480 kts 162°
2026-04-23 17:03 43.76282 23.26070 36966 ft 482 kts 173°
2026-04-23 17:04 43.69628 23.26778 36969 ft 482 kts 173°
2026-04-23 17:04 43.62943 23.27540 36961 ft 482 kts 173°
2026-04-23 17:05 43.56268 23.28358 36964 ft 481 kts 173°
2026-04-23 17:05 43.49601 23.29190 36972 ft 481 kts 172°
2026-04-23 17:06 43.42945 23.30016 36963 ft 481 kts 172°
2026-04-23 17:06 43.36286 23.30838 36970 ft 480 kts 172°
2026-04-23 17:07 43.29629 23.31658 36985 ft 480 kts 172°
2026-04-23 17:07 43.22962 23.32477 36990 ft 481 kts 172°
2026-04-23 17:08 43.16279 23.33213 36992 ft 482 kts 173°
2026-04-23 17:08 43.09572 23.33821 36989 ft 484 kts 173°
2026-04-23 17:09 43.02880 23.34426 36980 ft 484 kts 173°
2026-04-23 17:09 42.96148 23.35052 36980 ft 485 kts 173°
2026-04-23 17:10 42.89420 23.35685 37004 ft 484 kts 173°
2026-04-23 17:10 42.82702 23.36317 36997 ft 483 kts 173°
2026-04-23 17:11 42.75999 23.36945 36993 ft 483 kts 173°
2026-04-23 17:11 42.69304 23.37570 37000 ft 481 kts 173°
2026-04-23 17:12 42.62638 23.38192 36993 ft 481 kts 173°
2026-04-23 17:12 42.55967 23.38813 36991 ft 480 kts 173°
2026-04-23 17:13 42.49308 23.39431 36989 ft 479 kts 173°
2026-04-23 17:13 42.42665 23.40047 36988 ft 478 kts 173°
2026-04-23 17:14 42.36085 23.39345 37023 ft 489 kts 199°
2026-04-23 17:14 42.33065 23.37228 37233 ft 491 kts 216°
2026-04-23 17:14 42.30508 23.34157 37193 ft 494 kts 225°
2026-04-23 17:15 42.28113 23.30815 37018 ft 496 kts 226°
2026-04-23 17:15 42.25723 23.27445 36744 ft 494 kts 226°
2026-04-23 17:15 42.23346 23.24127 36474 ft 490 kts 225°
2026-04-23 17:15 42.20965 23.20857 36217 ft 487 kts 225°
2026-04-23 17:16 42.18570 23.17613 36052 ft 488 kts 225°
2026-04-23 17:16 42.16167 23.14382 36009 ft 490 kts 224°
2026-04-23 17:16 42.11324 23.07902 35996 ft 491 kts 224°
2026-04-23 17:17 42.06479 23.01422 35994 ft 491 kts 224°
2026-04-23 17:17 42.01628 22.94943 36002 ft 491 kts 224°
2026-04-23 17:18 41.97670 22.87575 36001 ft 489 kts 252°
2026-04-23 17:18 41.96907 22.83150 35742 ft 487 kts 267°
2026-04-23 17:18 41.97040 22.78645 35060 ft 480 kts 286°
2026-04-23 17:19 41.98229 22.74537 34396 ft 468 kts 307°
2026-04-23 17:19 42.00289 22.71238 33777 ft 458 kts 320°
2026-04-23 17:19 42.02582 22.68283 33200 ft 454 kts 322°
2026-04-23 17:19 42.04822 22.65527 32921 ft 444 kts 323°
2026-04-23 17:20 42.07158 22.62790 32671 ft 450 kts 324°
2026-04-23 17:20 42.10540 22.55425 32141 ft 490 kts 284°
2026-04-23 17:21 42.09870 22.46357 31068 ft 500 kts 245°
2026-04-23 17:21 42.08088 22.42299 30433 ft 497 kts 234°
2026-04-23 17:21 42.03740 22.35201 28860 ft 493 kts 219°
2026-04-23 17:22 42.00935 22.32584 27783 ft 493 kts 210°
2026-04-23 17:22 41.96468 22.25494 25172 ft 517 kts 250°
2026-04-23 17:23 41.95789 22.16095 23691 ft 502 kts 276°
2026-04-23 17:23 41.95979 22.11438 22799 ft 498 kts 275°
2026-04-23 17:23 41.95988 22.02233 21328 ft 487 kts 269°
2026-04-23 17:24 41.95779 21.97726 20621 ft 481 kts 268°
2026-04-23 17:24 41.95499 21.93284 19923 ft 474 kts 267°
2026-04-23 17:24 41.94899 21.84579 18555 ft 462 kts 267°
2026-04-23 17:25 41.94352 21.76269 17046 ft 429 kts 267°
2026-04-23 17:25 41.94101 21.72361 16421 ft 413 kts 267°
2026-04-23 17:26 41.93925 21.64937 15211 ft 384 kts 284°
2026-04-23 17:26 41.96188 21.58838 14071 ft 353 kts 314°
2026-04-23 17:27 41.99370 21.54130 12909 ft 333 kts 315°
2026-04-23 17:27 42.00909 21.51865 12379 ft 323 kts 315°
2026-04-23 17:27 42.02392 21.49665 12033 ft 309 kts 314°
2026-04-23 17:27 42.03788 21.47577 11885 ft 291 kts 314°
2026-04-23 17:28 42.05098 21.45609 11749 ft 275 kts 314°
2026-04-23 17:28 42.06341 21.43738 11628 ft 262 kts 314°
2026-04-23 17:28 42.07538 21.41936 11529 ft 256 kts 314°
2026-04-23 17:28 42.08729 21.40143 11446 ft 259 kts 314°
2026-04-23 17:29 42.09937 21.38321 11362 ft 262 kts 314°
2026-04-23 17:29 42.11152 21.36486 11234 ft 262 kts 314°
2026-04-23 17:29 42.13603 21.32895 10980 ft 258 kts 324°
2026-04-23 17:30 42.14644 21.32104 10768 ft 253 kts 340°
2026-04-23 17:30 42.18352 21.30214 10091 ft 238 kts 340°
2026-04-23 17:30 42.19878 21.29423 9801 ft 232 kts 340°
2026-04-23 17:31 42.21366 21.28649 9491 ft 226 kts 339°
2026-04-23 17:31 42.22810 21.27896 9227 ft 220 kts 339°
2026-04-23 17:31 42.24218 21.27159 8946 ft 214 kts 339°
2026-04-23 17:31 42.25590 21.26442 8688 ft 208 kts 339°
2026-04-23 17:32 42.26915 21.25748 8443 ft 202 kts 339°
2026-04-23 17:32 42.28119 21.24852 8175 ft 196 kts 315°
2026-04-23 17:32 42.28990 21.23492 7976 ft 189 kts 314°
2026-04-23 17:32 42.29861 21.22158 7759 ft 188 kts 314°
2026-04-23 17:33 42.30728 21.20837 7543 ft 188 kts 314°
2026-04-23 17:33 42.31599 21.19508 7332 ft 188 kts 314°
2026-04-23 17:33 42.32453 21.18205 7099 ft 183 kts 314°
2026-04-23 17:33 42.33282 21.16937 6861 ft 177 kts 314°
2026-04-23 17:34 42.34088 21.15706 6635 ft 173 kts 314°
2026-04-23 17:34 42.34880 21.14494 6441 ft 171 kts 314°
2026-04-23 17:34 42.36479 21.12049 5993 ft 175 kts 314°
2026-04-23 17:35 42.37282 21.10820 5773 ft 173 kts 314°
2026-04-23 17:35 42.38567 21.08850 5419 ft 164 kts 314°
2026-04-23 17:35 42.39568 21.07315 5149 ft 161 kts 314°
2026-04-23 17:36 42.40309 21.06180 4961 ft 161 kts 315°
2026-04-23 17:36 42.41160 21.05229 4737 ft 159 kts 344°
2026-04-23 17:36 42.42241 21.05132 4585 ft 155 kts 355°
2026-04-23 17:36 42.43322 21.04911 4393 ft 157 kts 354°
2026-04-23 17:37 42.44383 21.04795 4200 ft 150 kts 356°
2026-04-23 17:37 42.45404 21.04703 4058 ft 146 kts 356°
2026-04-23 17:37 42.47411 21.04514 3769 ft 144 kts 356°
2026-04-23 17:38 42.48399 21.04421 3555 ft 143 kts 356°
2026-04-23 17:38 42.49392 21.04327 3329 ft 143 kts 356°
2026-04-23 17:38 42.50385 21.04232 3110 ft 144 kts 356°
2026-04-23 17:38 42.51392 21.04136 2853 ft 145 kts 356°
2026-04-23 17:39 42.52404 21.04040 2590 ft 149 kts 356°
2026-04-23 17:39 42.53436 21.03943 2360 ft 150 kts 356°
2026-04-23 17:39 42.54489 21.03842 2178 ft 150 kts 356°
2026-04-23 17:39 42.55539 21.03750 1993 ft 153 kts 357°
2026-04-23 17:40 42.56591 21.03652 1783 ft 144 kts 356°
2026-04-23 17:40 42.57480 21.03568 1777 ft 102 kts 356°
2026-04-23 17:40 42.57961 21.03519 1775 ft 39 kts 355°
2026-04-23 17:40 42.58197 21.03495 1776 ft 23 kts 354°
2026-04-23 17:41 42.58253 21.03375 1777 ft 17 kts 265°
2026-04-23 17:41 42.58251 21.03339 1778 ft 0 kts 266°
2026-04-23 17:43 42.58250 21.03316 1778 ft 5 kts 265°
2026-04-23 17:43 42.58216 21.03256 1775 ft 12 kts 201°
2026-04-23 17:43 42.58112 21.03259 1775 ft 18 kts 175°
2026-04-23 17:44 42.57971 21.03273 1776 ft 22 kts 175°
2026-04-23 17:44 42.57814 21.03289 1774 ft 20 kts 176°
2026-04-23 17:44 42.57749 21.03283 1775 ft 6 kts 215°
2026-04-23 17:45 42.57733 21.03217 1774 ft 10 kts 239°
2026-04-23 17:45 42.57564 21.03198 1775 ft 12 kts 180°
2026-04-23 17:45 42.57484 21.03179 1776 ft 8 kts 232°
2026-04-23 17:46 42.57480 21.03129 1774 ft 0 kts 269°